User: anonymous   Login
Location: Caltech
(34.1382°N, 118.1253°W)
Time: 02:31:03
(UTC-08:00)
Language:

Hubble Space Telescope - Orbit

View from above orbital plane
View from above orbital plane
View from above satellite
View from above satellite

Ground track
Ground track

The orbit data is extracted from the following two-line orbital elements,

1 20580U 90037B   17022.09860737  .00000527  00000-0  21592-4 0  9993
2 20580  28.4691 252.7630 0002847  44.8750  90.2999 15.08650613268202
Epoch (UTC): 22 January 2017 02:21:59
Eccentricity: 0.0002847
inclination: 28.4691°
perigee height: 538 km
apogee height: 542 km
right ascension of ascending node: 252.7630°
argument of perigee: 44.8750°
revolutions per day: 15.08650613
mean anomaly at epoch: 90.2999°
orbit number at epoch: 26820

The dashed part of the orbit path shows where the satellite is in the earth's shadow,  

DLR